Location: Austin
(30.3000°N, 97.7500°W)
Time: 09:05:40
(UTC-06:00)

Cosmos 407 Rocket - Pass Details

Date: 12 February 2024
Orbit: 742 x 784 km, 74.0° (Epoch: 28 February)

Event Time Altitude Azimuth Distance (km) Brightness Sun altitude
Rises 18:39:17 0° 181° (S) 3,162 6.9 -5.6°
Reaches altitude 10° 18:41:42 10° 175° (S) 2,242 6.0 -6.1°
Maximum altitude 18:46:33 48° 102° (ESE) 968 3.7 -7.1°
Drops below altitude 10° 18:51:27 10° 29° (NNE) 2,260 5.6 -8.1°
Sets 18:53:52 0° 24° (NNE) 3,191 6.4 -8.6°
